Theta_e
311 311 311 312 313 314 314 315 316 317 317 317 317 317 317 317 317 318 319 319 319 320 320 320 321 321 321 322 320 321 315 293 295 294 294 300 314 318 318 318 318 319 317 302 301 299 296 296 295 297 296 296 294 293 297 297 296 288 284 280 281 283 287 289 289 290 293 290 292 293 293 292 291 294 298 301 299 299 300 300 302 303 304 310 314 322 326 327
312 312 312 311 313 313 314 315 316 317 317 317 317 317 316 316 317 317 318 319 320 319 320 321 320 321 321 320 317 319 305 294 292 294 294 308 317 318 318 319 318 318 312 300 298 297 295 294 295 294 294 292 297 292 296 293 295 287 281 281 281 285 290 293 293 293 291 291 292 292 293 291 292 293 297 296 295 296 296 298 300 300 301 303 304 307 311 310
312 312 312 312 313 313 315 315 316 316 317 317 317 317 317 316 316 317 318 318 319 319 320 320 321 321 320 313 313 319 301 298 291 291 296 313 317 318 318 318 318 318 302 298 300 298 296 294 294 293 292 291 292 290 295 293 294 291 287 284 286 291 291 293 293 292 293 293 292 291 293 291 293 293 296 294 293 295 294 295 297 297 298 300 302 304 304 304
311 311 312 312 313 314 314 315 316 316 317 317 317 317 316 316 317 317 317 318 319 319 319 320 321 320 316 315 319 306 299 291 287 291 298 314 317 318 318 319 318 312 303 303 301 300 299 298 295 294 290 290 289 292 290 292 290 291 289 285 288 291 289 291 292 291 292 293 292 291 291 292 294 292 293 292 292 292 294 297 296 297 298 300 301 302 302 302
311 311 312 312 312 313 314 315 316 316 316 317 316 316 316 316 316 317 317 318 319 318 319 320 320 320 316 311 310 298 294 283 286 295 300 314 317 318 317 318 318 306 303 303 304 303 300 297 294 294 290 286 289 287 288 292 293 290 288 290 290 290 288 292 291 291 290 291 290 290 291 291 293 292 293 293 290 290 293 296 298 299 299 298 298 299 300 300
311 311 311 312 312 313 314 315 315 316 316 316 315 315 315 315 316 317 317 317 317 318 319 319 320 318 316 313 299 295 290 276 290 294 311 314 316 316 316 316 315 306 304 303 301 300 299 297 295 290 288 287 286 285 287 289 293 285 287 289 290 290 289 291 291 290 289 289 290 289 291 291 291 291 292 293 291 293 295 296 298 297 297 297 298 298 298 298
310 311 311 311 311 312 313 314 315 316 316 315 315 314 315 315 316 317 316 317 317 317 319 319 320 319 312 309 295 295 289 287 291 298 309 313 314 313 314 311 310 302 302 300 300 298 297 296 295 290 288 287 288 287 289 288 290 287 284 287 289 289 289 289 289 288 288 289 289 290 292 290 289 290 291 292 293 294 296 297 296 296 296 296 295 295 296 297
310 310 311 311 311 312 313 314 315 315 316 315 315 315 315 315 316 316 317 316 316 317 318 319 319 319 313 300 290 288 289 288 295 299 309 311 305 303 307 302 302 301 300 298 298 297 297 295 293 293 288 286 288 287 289 286 289 286 285 287 288 288 289 289 289 287 288 289 289 289 289 287 289 290 292 291 293 295 295 296 295 295 294 294 294 294 294 295
310 310 310 311 311 312 313 314 315 315 316 316 315 315 315 315 316 317 317 316 316 317 318 319 319 320 310 295 287 286 285 293 298 298 300 299 298 299 299 299 301 299 299 298 298 298 297 294 295 294 287 287 290 287 288 286 282 287 287 287 286 287 288 289 289 288 288 290 290 290 288 289 290 291 290 291 293 295 295 294 294 293 293 293 293 293 294 294
310 310 310 311 311 312 313 314 315 315 315 316 316 315 315 315 316 317 318 317 317 316 318 319 318 315 299 291 287 284 290 297 298 299 299 299 298 298 298 298 299 298 297 298 297 298 296 295 296 298 294 291 291 287 288 287 285 289 288 287 286 288 288 289 288 288 288 289 289 288 287 287 291 290 285 290 292 293 292 292 292 292 291 292 292 293 293 293
310 310 310 311 311 312 313 314 315 315 315 315 316 316 316 316 316 317 318 318 317 318 318 319 317 307 294 292 288 284 296 296 299 298 299 299 298 296 296 297 298 298 298 297 296 297 298 298 299 299 292 289 290 286 287 287 290 288 288 287 287 289 290 290 290 289 289 288 289 287 286 288 289 288 286 288 291 292 290 290 290 290 290 291 292 292 293 293
310 310 310 311 311 312 313 314 314 315 316 316 316 317 317 316 315 318 319 319 318 319 318 320 314 301 293 291 288 288 296 297 298 298 299 298 297 296 297 298 298 298 297 295 296 297 298 299 300 294 287 294 285 286 288 289 289 287 287 285 286 289 288 289 288 288 288 288 290 288 286 284 284 283 287 289 290 290 289 289 289 290 290 290 291 292 292 293
310 310 310 311 311 311 312 313 314 315 315 316 317 317 317 316 315 317 319 318 317 317 318 315 309 298 294 286 288 296 298 298 297 298 299 299 298 300 300 299 299 299 299 297 295 297 297 300 298 291 291 289 288 282 289 289 287 288 288 283 285 284 285 288 290 289 288 289 289 287 275 279 282 285 287 288 289 289 288 288 289 289 290 290 290 291 292 293
310 310 310 310 311 311 312 313 314 314 315 316 316 317 318 318 316 316 321 317 319 316 315 309 300 292 288 285 292 296 301 300 298 298 297 299 297 297 299 300 300 299 299 296 296 296 296 297 296 294 292 288 285 290 287 286 287 282 285 286 279 277 279 286 287 288 287 289 288 288 276 277 282 285 287 288 289 288 287 287 288 288 289 290 290 290 291 292
310 310 310 310 310 311 311 312 313 314 315 315 316 317 317 316 316 317 317 316 316 312 311 311 295 288 286 287 295 299 309 304 296 296 298 296 295 296 297 298 298 297 296 296 295 297 296 296 293 288 286 290 290 285 281 281 282 282 279 277 277 278 279 283 289 287 283 286 288 286 277 278 282 284 287 288 288 288 286 286 287 287 288 289 289 290 290 291
309 310 310 310 310 311 311 312 312 313 314 314 316 317 316 314 313 314 315 315 313 310 298 294 294 288 286 283 291 304 295 293 293 297 297 297 295 293 296 295 296 295 295 295 297 296 295 295 289 287 287 288 285 279 280 279 278 279 278 276 276 278 278 279 287 287 286 285 286 285 278 280 281 284 286 287 287 287 286 286 286 287 287 288 289 289 290 290
309 310 310 310 311 311 311 311 312 312 312 313 315 316 316 313 313 312 312 312 305 301 297 291 292 292 284 290 296 291 289 293 296 296 297 297 296 296 295 295 292 291 294 294 293 293 291 290 288 286 287 283 283 280 277 275 275 276 277 277 278 277 279 278 283 288 286 285 281 283 280 279 281 283 285 287 287 286 285 285 286 286 287 288 288 289 289 289
309 309 310 310 311 311 311 311 311 310 310 312 314 316 310 317 311 308 304 302 298 296 295 296 291 285 283 290 286 288 293 291 294 294 295 297 297 297 294 292 292 290 289 289 289 287 288 285 286 281 282 282 282 280 276 272 274 275 276 276 276 277 279 279 279 284 283 283 281 281 280 280 281 284 285 286 287 286 285 285 285 286 286 287 287 288 288 289
308 309 309 310 311 311 311 311 310 309 309 310 313 314 312 312 296 295 296 295 289 285 282 285 285 278 276 285 288 290 291 294 294 293 293 295 296 296 295 294 291 287 284 282 284 285 284 282 284 280 276 278 278 278 277 277 278 277 277 277 277 277 278 278 282 285 283 280 280 279 278 279 280 281 283 284 285 285 284 285 285 286 286 286 287 287 288 288
308 308 309 310 310 311 311 310 309 308 308 302 294 294 293 290 287 285 291 292 287 287 286 288 287 287 287 287 289 293 296 295 290 292 294 296 295 293 292 290 288 286 282 278 280 283 283 278 276 275 276 278 279 280 280 280 280 279 278 278 277 277 279 281 282 285 286 282 280 279 279 279 280 280 281 283 284 284 284 284 284 285 285 286 286 287 287 288
307 308 308 309 311 311 312 309 308 308 307 295 294 292 285 285 280 282 285 286 288 288 287 288 288 288 288 289 290 291 288 288 289 291 293 298 294 290 288 287 284 282 282 281 280 284 283 278 276 278 279 279 279 280 280 280 280 279 278 277 277 277 276 281 281 285 286 280 280 281 281 280 279 280 281 283 284 283 283 283 284 284 285 285 286 286 286 287
307 307 308 309 310 311 312 309 307 306 305 299 296 290 291 291 292 289 285 281 288 289 288 287 287 288 289 290 291 292 289 285 287 290 294 295 290 287 285 284 281 279 281 280 277 276 278 275 278 280 281 280 280 280 280 280 278 278 277 277 277 277 278 281 282 285 286 283 279 281 280 280 281 281 281 282 282 282 283 284 284 284 284 285 286 286 286 287
306 307 308 309 310 312 312 310 306 305 296 295 292 289 289 295 295 294 290 283 283 289 288 285 285 284 287 290 291 291 285 283 281 288 290 293 288 287 285 281 281 280 281 281 277 276 274 277 280 282 280 278 279 279 279 278 278 277 278 276 274 277 277 276 280 283 284 282 280 281 280 280 282 282 281 281 281 281 282 283 283 284 284 285 285 285 286 286
306 307 307 308 310 311 312 309 306 299 294 293 293 292 295 294 295 294 286 277 280 285 288 288 286 285 285 287 290 289 284 284 284 285 293 289 285 286 283 282 279 280 278 279 279 277 275 279 282 280 278 278 277 278 278 277 275 276 277 276 275 276 276 277 277 281 281 284 283 280 277 278 280 279 279 281 281 281 282 283 283 284 284 284 285 285 286 286
306 306 307 308 309 310 310 307 294 292 291 289 290 294 293 294 294 295 283 278 274 282 289 288 288 287 289 293 292 287 286 286 285 288 290 290 286 284 283 286 280 278 279 278 278 277 277 281 281 278 277 277 277 276 276 277 274 274 277 277 277 277 276 277 278 278 275 276 279 280 271 273 276 279 279 280 278 279 279 280 281 282 283 283 284 284 285 286
305 306 306 307 309 308 309 292 288 291 289 288 292 294 294 293 293 293 279 267 269 276 283 281 291 285 293 287 289 285 286 281 287 289 294 291 293 287 283 280 282 278 279 279 277 277 279 280 279 277 276 276 276 275 276 277 274 272 276 278 278 277 277 277 278 277 274 273 278 277 271 266 276 279 281 280 276 277 278 278 280 281 282 282 283 284 284 285
305 305 306 307 308 308 289 285 291 288 283 285 291 293 293 293 293 293 285 266 264 279 280 286 287 285 292 287 286 285 272 278 289 288 289 292 286 290 280 278 279 281 282 281 275 276 278 279 279 278 277 276 275 274 276 277 273 273 277 278 278 277 277 277 278 278 277 277 279 276 275 269 273 276 279 279 276 275 276 277 278 280 281 282 282 283 283 284
305 305 305 306 307 304 290 290 287 285 284 288 293 293 293 292 293 287 272 263 265 282 279 282 287 291 289 287 288 282 282 285 280 285 290 289 288 286 281 279 278 278 279 277 269 277 278 278 278 277 276 276 274 276 278 278 276 276 279 279 277 276 277 277 277 277 277 275 269 273 275 274 270 274 276 276 274 274 275 276 277 279 280 281 282 283 283 284
305 305 305 306 306 305 296 290 286 286 291 292 292 292 295 292 287 277 265 264 277 277 291 283 294 287 284 285 283 281 281 284 279 284 289 287 289 284 278 279 279 280 280 278 274 278 280 281 280 279 276 275 277 278 277 278 276 277 279 279 278 278 278 278 276 277 276 265 264 272 274 265 269 273 275 275 273 274 275 276 278 279 280 281 282 283 283 283
305 304 305 306 300 293 293 290 290 293 293 293 291 291 292 289 281 274 270 265 278 271 282 282 282 280 280 278 278 281 281 281 282 284 284 281 284 286 284 285 279 276 278 279 278 279 279 284 287 279 278 279 278 278 278 278 279 281 278 276 276 274 274 276 274 275 267 260 268 273 273 273 267 273 275 274 275 275 275 275 276 278 280 281 282 282 283 283
305 305 304 305 292 294 290 284 288 290 292 292 291 291 287 276 269 258 263 268 278 276 281 275 280 281 277 277 275 279 279 278 281 281 279 282 280 281 280 277 279 274 271 275 275 278 278 278 279 280 284 280 279 277 279 279 278 278 276 274 274 274 272 269 265 265 262 258 267 272 273 275 264 270 276 276 276 276 276 277 277 279 280 281 281 282 282 282
305 305 304 298 297 295 287 286 290 293 292 293 290 284 280 278 270 268 269 278 271 273 275 274 278 277 277 276 276 277 276 277 279 279 276 276 275 276 275 273 274 263 264 270 271 276 277 277 278 279 285 280 277 274 275 278 279 278 275 274 268 262 261 266 259 262 256 263 271 272 274 270 272 272 278 278 278 278 276 278 279 279 280 281 282 282 282 282
305 304 304 301 302 291 293 291 294 293 291 292 285 280 271 264 270 266 267 266 270 274 274 280 278 278 277 273 273 277 277 275 279 278 278 275 276 275 277 276 275 272 266 272 271 269 270 276 277 279 278 282 278 273 273 274 277 276 274 270 262 258 252 255 251 256 257 266 271 272 273 270 272 275 277 278 278 278 279 278 279 280 281 282 281 281 281 281
305 304 293 297 297 296 295 295 293 291 292 289 282 280 274 271 270 278 266 264 270 276 278 278 278 277 274 274 274 275 273 277 276 277 276 271 271 271 275 277 277 274 269 267 270 268 263 264 273 277 275 279 278 276 276 275 274 274 276 273 268 256 259 259 256 261 260 263 268 271 267 262 268 275 279 279 279 279 278 278 278 280 279 279 280 280 280 280
304 298 293 292 294 295 295 293 291 293 289 284 277 273 272 267 265 267 266 266 275 276 280 276 278 274 271 272 275 277 277 271 277 274 275 270 269 271 273 274 277 275 274 265 269 268 271 268 274 278 279 278 277 279 279 277 272 273 275 273 267 267 266 262 256 259 256 260 263 261 267 271 275 279 280 279 278 276 277 277 278 278 279 278 279 280 280 280
299 291 295 291 294 294 293 293 289 291 287 278 271 270 272 265 269 268 272 278 280 279 274 277 272 271 269 268 270 273 279 275 276 270 267 272 275 272 276 276 275 276 272 266 270 263 267 266 276 277 279 277 277 279 280 279 267 275 272 266 272 275 271 264 261 263 261 258 261 263 269 273 273 279 280 277 276 276 275 276 276 277 277 277 278 279 279 280
289 291 290 291 292 293 292 292 293 288 284 277 272 272 266 269 272 272 280 279 280 277 274 269 268 272 265 265 268 271 275 275 273 269 265 273 268 275 275 277 278 276 276 273 268 272 266 269 275 276 277 279 279 278 279 279 278 273 267 273 276 274 271 266 261 256 252 257 258 265 266 269 269 266 277 274 273 275 274 275 275 275 276 277 278 279 279 280
288 288 292 291 294 293 292 291 291 285 281 278 273 280 269 270 277 279 279 279 279 277 271 267 273 277 268 269 267 271 275 271 271 266 267 271 266 278 276 276 278 277 277 277 270 269 274 264 270 276 276 277 278 277 278 278 279 278 276 278 273 260 264 260 259 255 255 255 256 262 266 268 271 271 275 274 273 274 274 274 274 276 277 277 278 279 279 280
287 285 283 291 294 293 291 290 288 282 275 274 270 277 274 273 279 278 281 280 277 272 273 270 267 272 273 271 272 272 273 268 272 267 265 267 265 277 276 277 277 277 277 277 272 273 271 265 269 276 276 275 276 272 266 273 277 272 277 275 275 268 262 259 261 258 258 255 257 259 259 265 272 272 273 273 273 275 274 274 274 276 276 277 278 279 279 279
285 280 280 292 293 292 292 290 283 279 276 272 271 269 274 275 280 281 278 281 278 276 273 275 271 267 270 271 274 271 273 272 273 271 270 271 272 278 277 278 276 277 277 277 274 275 270 268 262 271 272 274 267 269 271 275 272 273 272 267 266 267 271 269 264 262 261 254 253 254 258 262 271 274 274 274 274 276 275 275 276 276 277 278 278 279 278 279
284 277 279 290 291 292 290 288 281 273 271 269 268 270 273 275 279 281 280 278 277 280 279 275 274 270 267 270 272 272 273 273 271 271 272 272 273 267 277 278 278 275 276 275 273 274 264 262 265 265 269 266 270 276 277 275 275 273 272 271 271 267 262 262 263 266 261 261 257 256 262 267 273 277 276 275 275 276 276 276 276 277 278 278 279 278 278 278
281 276 280 291 290 290 285 278 274 271 272 271 272 271 278 286 278 280 280 278 277 277 277 278 276 273 270 271 273 272 270 272 274 271 273 272 275 274 276 276 277 278 274 271 272 277 273 262 263 265 266 272 275 276 277 276 273 274 274 272 272 268 264 256 257 256 260 263 261 257 258 263 274 275 276 276 276 276 276 277 278 278 278 279 279 278 278 278
275 276 288 289 290 288 281 273 276 276 273 275 280 278 278 279 277 280 279 279 275 277 271 275 278 275 275 273 269 266 269 271 272 273 274 273 274 276 277 276 278 277 275 272 275 277 281 262 264 266 267 270 273 271 271 275 275 270 266 268 270 269 269 266 262 260 260 259 260 258 259 265 273 276 276 276 276 277 278 277 277 278 279 279 277 277 278 278
278 279 283 289 289 286 278 274 270 271 272 274 275 275 279 279 279 278 278 278 273 277 275 274 277 279 277 276 271 270 272 266 271 272 272 272 275 279 277 277 278 275 275 274 271 272 266 266 267 259 256 261 260 265 268 270 269 267 270 272 273 271 268 264 260 257 262 261 266 259 259 261 272 276 276 276 278 277 277 278 278 277 278 277 277 277 278 278
279 281 282 286 289 285 277 273 272 271 273 272 272 274 275 275 279 279 278 278 279 276 276 276 278 278 277 277 274 274 272 272 267 271 273 274 274 279 278 277 278 276 278 280 282 277 267 266 264 260 259 259 259 257 259 258 264 272 272 271 272 271 268 267 261 258 259 260 263 257 261 270 273 275 276 277 277 276 276 278 279 278 276 276 278 278 278 278
277 276 277 278 281 281 279 279 277 273 271 269 270 273 274 274 279 279 279 279 279 279 278 279 279 277 275 275 273 271 271 272 269 265 269 268 271 275 277 275 274 276 282 283 282 276 264 266 265 262 261 264 266 264 265 273 269 267 270 270 271 273 273 270 266 264 264 264 262 265 267 270 272 274 274 275 275 275 276 277 277 277 276 277 277 277 278 278
279 274 274 275 273 277 272 275 273 274 274 274 270 273 272 273 276 277 280 276 280 278 278 278 277 277 275 274 271 272 273 272 271 269 269 269 270 272 272 275 274 279 283 281 281 272 265 264 265 266 266 269 269 267 268 272 267 269 269 270 272 271 270 268 264 265 268 262 263 268 271 268 270 273 274 275 276 276 277 277 276 276 277 278 278 277 280 278
277 275 273 276 276 274 271 273 273 273 274 275 272 274 273 273 274 272 276 279 279 279 275 276 278 278 277 275 273 267 271 270 270 268 273 270 272 272 273 275 275 280 281 274 276 270 262 264 264 266 264 268 270 270 271 268 269 270 270 270 269 270 270 267 267 270 270 265 264 269 270 269 271 273 275 275 276 276 276 276 276 277 277 277 276 276 276 276
281 275 273 279 274 271 273 274 274 274 274 272 274 274 273 274 273 275 274 276 277 276 277 271 275 276 276 276 274 269 271 267 265 269 270 268 270 270 268 269 275 275 271 272 272 270 268 262 265 268 266 268 270 271 271 270 268 269 269 270 271 269 269 270 269 270 270 268 270 270 270 270 273 274 275 276 278 277 277 276 276 276 276 276 275 275 275 276
277 276 275 275 272 270 272 274 275 274 274 280 272 273 275 275 275 276 277 275 273 276 278 276 275 276 277 275 274 272 273 273 272 270 274 273 267 272 268 273 271 274 272 270 272 271 269 263 274 268 267 268 270 270 270 269 266 266 269 270 270 270 270 271 270 271 271 269 270 270 269 269 274 276 276 277 276 275 275 275 276 276 276 276 275 275 275 276
283 282 280 277 271 272 276 275 274 273 273 275 272 274 276 276 275 278 277 279 276 275 276 276 277 276 276 276 275 275 276 275 276 275 277 275 271 275 272 270 276 267 272 269 271 269 272 265 267 268 267 268 270 267 267 263 264 265 267 268 268 268 264 267 267 271 268 268 269 269 267 269 274 275 275 275 275 275 275 275 276 276 276 276 275 275 276 276
282 284 281 277 275 281 275 275 275 275 272 275 275 275 277 277 278 278 277 279 279 278 279 277 277 277 275 274 276 277 278 277 278 278 278 278 277 277 277 277 277 275 270 272 274 272 274 269 266 267 267 266 270 269 266 267 267 264 264 266 269 269 269 270 271 272 272 271 267 266 268 274 275 276 275 275 275 275 275 275 275 276 276 276 275 276 276 276
Wind_Speed
18 18 18 18 18 18 18 18 18 17 17 16 16 16 16 16 16 16 16 16 16 16 16 16 15 15 13 12 9 6 4 5 14 18 26 17 22 26 25 24 24 25 24 10 14 18 15 13 16 15 8 8 7 6 5 5 4 3 2 5 7 1 7 2 3 3 1 2 5 9 6 8 11 11 7 4 12 9 8 11 4 8 9 6 3 5 5 6
19 19 19 19 18 18 18 18 18 18 17 16 16 16 16 16 16 16 16 17 16 17 17 17 17 15 14 13 10 7 4 6 15 19 21 21 27 27 25 25 24 24 18 14 15 13 11 13 11 10 9 7 4 4 4 3 4 6 2 7 5 2 1 1 0 1 2 3 4 5 5 4 7 3 6 7 11 14 13 11 10 12 12 13 15 13 15 16
19 19 19 20 19 18 19 19 18 18 17 17 16 16 16 16 16 17 17 17 16 17 18 17 18 17 17 14 4 9 5 1 9 27 16 27 27 26 25 24 23 23 12 6 10 7 6 8 5 4 7 8 10 6 10 8 5 7 9 8 6 1 2 1 2 3 1 3 5 5 7 4 6 4 3 4 3 13 13 10 10 12 13 16 16 16 17 19
19 19 19 19 18 19 19 19 18 18 17 17 17 17 17 17 16 17 17 17 17 17 18 18 18 19 20 16 10 6 4 1 17 10 13 27 27 25 24 24 22 15 12 10 7 7 5 5 5 6 6 13 5 9 12 8 5 3 7 3 1 2 2 6 5 3 5 1 3 3 4 9 12 4 4 5 8 11 8 9 9 13 16 16 17 18 19 20
19 19 19 19 18 19 19 18 18 17 17 17 17 16 16 16 16 16 16 17 16 17 17 18 17 17 16 18 6 3 4 8 8 10 15 28 26 24 23 23 20 12 8 9 12 14 11 10 4 7 7 5 8 4 6 6 4 3 4 3 1 1 3 4 6 5 5 3 3 5 12 5 7 4 10 10 10 7 6 10 16 19 18 18 18 18 20 21
19 19 19 19 19 18 18 18 17 17 16 16 16 16 16 16 16 15 16 16 16 16 16 17 16 15 9 16 14 5 6 7 6 11 18 26 25 23 21 20 19 13 13 14 11 8 17 13 14 8 6 6 7 6 3 3 1 7 3 3 4 3 1 4 5 6 4 5 8 4 3 1 8 4 6 10 10 7 10 12 17 19 18 17 20 20 22 21
19 18 19 18 18 18 18 18 17 16 16 15 15 15 15 15 14 15 15 15 15 15 15 16 16 14 7 4 4 14 17 5 3 12 18 25 24 22 20 14 16 11 11 15 15 12 11 14 13 5 1 4 8 5 4 1 3 8 3 3 5 4 4 5 4 5 5 12 6 2 1 11 7 13 4 17 16 17 16 15 17 18 21 23 23 20 19 18
19 19 18 18 18 18 17 17 17 16 16 15 15 14 14 14 13 13 13 13 14 15 15 17 16 16 10 1 2 10 14 8 13 12 17 23 20 18 15 11 12 12 10 8 8 13 6 15 11 4 7 7 2 3 6 3 8 7 3 4 5 2 4 5 2 4 5 9 5 6 9 4 4 4 13 19 16 16 16 17 19 21 22 22 22 21 20 21
19 19 19 18 18 18 18 17 17 16 16 15 15 14 14 13 13 13 12 12 12 13 14 16 17 16 12 2 3 13 12 6 11 12 13 15 16 13 10 9 12 11 10 9 6 7 10 7 6 5 1 4 4 4 6 5 6 4 1 2 3 4 4 5 8 7 6 5 8 13 11 11 10 4 22 12 12 13 19 20 17 21 23 20 19 20 20 20
19 19 19 19 18 18 18 17 17 16 16 15 15 14 14 13 13 12 11 11 10 12 12 13 14 11 9 6 1 21 5 10 9 10 13 14 14 13 13 8 9 9 10 12 10 11 9 3 1 5 2 0 1 3 1 6 1 1 1 1 5 6 6 9 10 9 5 6 11 14 16 16 14 10 10 10 9 15 21 19 17 20 20 19 18 18 18 21
20 19 19 19 19 18 18 18 17 17 16 16 15 14 13 13 12 12 10 10 10 10 12 11 9 6 10 5 23 10 4 7 6 8 13 12 14 12 10 10 7 8 7 10 10 4 1 1 3 1 2 1 2 4 6 3 1 3 0 6 7 9 16 14 15 13 6 3 8 7 19 22 15 15 8 5 8 17 19 17 17 17 15 15 17 17 16 17
20 20 19 19 19 18 18 17 17 17 17 16 15 14 13 12 12 11 10 10 9 12 11 10 6 2 2 13 18 5 7 5 7 7 8 11 13 8 9 6 5 4 3 7 11 9 4 2 3 6 3 2 2 2 7 5 6 4 6 11 9 16 17 16 11 11 5 5 8 3 21 21 16 10 6 4 11 18 18 17 15 16 14 14 14 16 17 15
19 20 20 19 19 19 18 17 18 17 17 16 15 14 12 12 12 12 10 8 10 11 10 10 6 5 0 17 3 6 4 5 5 9 16 14 13 8 7 9 8 4 2 3 6 7 5 4 4 13 5 2 1 3 1 5 2 6 12 4 12 10 13 15 12 16 8 10 12 6 7 8 9 9 8 8 11 20 20 16 15 13 13 13 14 14 15 16
19 19 20 20 19 19 18 18 18 18 17 17 16 13 11 11 12 12 8 7 8 9 6 7 5 6 5 5 5 4 7 6 6 17 16 13 15 12 14 15 10 7 5 7 6 7 7 7 5 4 5 11 3 4 4 4 6 5 1 10 4 7 5 9 8 13 12 8 11 18 12 4 7 9 9 8 12 21 16 14 14 14 14 13 13 14 14 16
19 19 19 19 19 19 19 19 19 19 18 17 15 13 12 12 12 10 8 5 11 12 4 4 8 2 7 0 4 8 13 5 16 14 9 13 10 12 16 13 10 7 4 8 4 8 4 4 17 14 4 2 4 4 6 5 8 5 6 7 5 7 5 7 12 14 8 7 3 19 11 5 6 9 9 7 12 19 16 13 13 13 13 13 12 14 14 13
19 19 19 19 18 18 18 19 20 19 18 16 13 10 10 11 13 7 9 5 9 15 2 7 7 7 9 5 2 8 3 18 13 12 6 6 5 4 10 6 5 11 9 8 8 7 10 3 12 6 11 20 16 4 9 9 7 6 7 4 5 6 5 3 13 10 9 10 17 16 8 2 7 8 7 7 11 16 16 14 13 13 13 13 12 12 11 12
20 19 19 18 18 18 18 19 19 19 18 16 13 9 7 10 14 6 7 7 4 4 7 3 5 1 8 3 2 8 6 5 5 7 14 8 3 5 10 9 6 10 6 3 9 6 8 8 4 3 8 10 7 6 10 9 8 7 4 6 1 6 5 7 5 12 9 14 10 10 12 6 2 5 8 10 10 16 15 13 13 12 11 11 11 12 13 14
20 19 19 18 17 17 18 18 18 17 17 16 10 6 4 8 13 15 9 5 2 5 3 3 2 3 2 5 5 8 7 6 10 10 7 10 3 12 8 5 6 10 5 5 5 13 5 7 6 11 11 14 13 10 9 6 2 5 6 6 6 2 5 4 5 6 5 9 12 10 13 7 4 6 9 9 9 16 13 11 11 11 12 12 11 12 13 13
20 19 19 18 17 16 17 19 17 15 15 11 7 2 6 6 4 8 12 8 6 8 9 10 9 7 1 7 7 6 7 6 6 6 14 11 7 2 3 2 2 8 5 5 5 7 7 1 10 19 14 11 10 7 8 2 3 6 5 4 2 6 7 6 3 3 5 10 11 10 9 6 7 7 6 8 9 14 10 9 10 11 11 11 12 11 12 12
20 19 19 18 17 16 17 18 16 15 11 6 6 2 4 4 7 5 7 8 15 9 5 1 1 0 2 6 7 7 6 6 6 12 13 12 7 7 10 5 3 4 7 7 8 9 5 17 13 8 7 7 7 6 3 4 3 4 4 6 7 6 3 2 4 5 1 9 7 5 7 8 6 6 5 4 5 12 11 12 10 10 10 11 11 11 10 12
20 20 19 18 17 16 15 17 16 16 12 7 6 8 3 1 3 3 4 5 1 4 5 1 1 1 0 3 4 7 5 4 3 10 9 9 0 2 10 8 11 19 13 4 2 3 2 21 12 6 6 7 5 4 2 5 7 7 7 7 9 8 5 3 3 7 8 5 1 2 8 5 4 4 4 3 13 12 9 9 10 10 9 9 10 11 10 4
20 20 20 19 17 15 13 13 18 10 12 10 12 8 4 2 1 2 1 4 4 2 7 3 2 3 4 2 3 1 4 2 11 15 9 11 10 8 5 8 7 12 9 7 3 6 18 10 8 9 7 5 2 5 5 7 8 9 8 4 7 9 4 6 2 9 5 5 2 1 8 3 3 3 4 8 9 5 5 7 6 8 9 9 9 8 8 8
20 20 20 19 18 15 11 8 11 15 5 9 6 4 2 1 2 4 2 4 3 1 2 3 7 5 5 4 1 5 2 11 4 11 12 9 7 7 1 6 9 2 8 13 13 8 13 11 9 8 6 4 7 9 9 5 7 9 10 8 3 2 5 4 6 8 10 1 3 1 8 3 3 3 5 5 5 4 5 6 6 6 9 9 7 6 6 7
20 20 20 20 19 16 11 4 5 7 9 9 7 3 1 1 1 2 2 1 3 2 1 0 2 1 2 4 4 3 3 2 2 13 9 5 6 3 3 4 5 6 8 9 13 14 7 2 4 4 6 6 6 11 13 8 7 4 5 3 1 3 2 2 4 6 4 3 3 2 3 2 4 3 5 4 4 6 6 7 7 7 6 4 4 5 5 6
19 19 20 20 20 17 6 7 7 3 1 3 3 1 3 2 1 1 2 1 4 1 2 0 3 2 3 1 4 1 1 1 3 1 4 5 8 4 1 0 3 6 1 0 5 9 5 1 2 7 8 10 9 11 10 6 6 5 1 3 1 2 3 2 5 2 3 1 3 1 1 2 2 2 1 3 4 6 4 6 6 5 5 4 6 5 5 5
19 19 19 20 21 16 5 4 3 0 4 3 0 3 2 2 0 1 5 4 2 4 3 3 1 5 2 6 6 2 1 2 1 3 3 6 4 1 1 4 2 4 4 2 4 3 2 2 6 4 4 5 4 4 3 5 3 3 3 3 2 2 1 1 4 3 2 3 1 2 4 1 1 1 1 1 4 6 4 5 4 4 4 4 5 4 4 4
18 18 18 19 20 13 4 0 0 1 2 1 1 2 3 3 1 1 1 5 4 2 3 3 2 3 3 3 4 0 3 5 8 2 8 8 4 1 4 5 3 1 0 1 3 3 3 6 7 6 8 6 6 9 4 5 2 1 1 4 3 0 1 2 1 2 1 1 2 5 2 2 1 1 0 1 5 4 4 4 4 3 4 4 4 4 4 4
17 16 16 17 16 12 2 1 3 3 1 1 1 3 3 2 1 2 4 1 1 3 3 4 1 3 5 6 10 7 3 6 4 5 6 8 3 4 7 1 2 4 4 2 5 5 3 5 5 9 7 7 7 2 8 1 1 4 5 6 7 3 3 3 4 3 1 2 1 7 5 3 1 2 1 3 3 4 4 3 3 3 3 3 3 3 4 4
16 14 14 15 11 10 7 3 2 3 2 2 2 3 3 1 2 5 4 1 0 1 3 1 3 2 6 6 8 3 2 4 2 4 9 3 8 2 5 3 1 1 6 5 5 1 1 2 1 3 5 7 5 5 2 2 6 5 6 5 2 1 1 3 2 1 2 2 2 4 5 1 4 2 2 2 3 1 1 1 1 1 1 1 2 3 3 3
16 13 12 13 6 6 4 2 4 1 2 1 2 2 1 1 3 2 1 1 1 1 2 2 3 6 4 3 3 7 8 4 1 4 4 3 9 8 2 0 1 4 4 6 6 2 3 5 2 4 3 3 4 5 1 1 3 10 3 1 1 5 4 2 6 2 3 1 2 1 4 1 1 2 4 3 2 2 1 2 2 2 2 2 1 1 2 2
15 12 10 7 4 0 0 3 3 2 1 1 1 1 1 5 3 4 0 1 1 1 1 4 1 5 6 7 5 5 2 3 8 6 7 7 13 5 7 3 5 4 5 5 5 8 5 3 3 3 1 4 1 3 0 1 4 5 4 2 2 1 8 3 5 3 2 2 4 2 4 1 2 1 3 4 1 2 3 1 1 0 1 1 1 2 2 2
15 11 8 3 0 1 2 2 3 0 1 1 2 2 2 2 4 1 1 3 0 2 3 2 1 1 3 2 3 7 5 5 3 5 5 3 8 12 8 5 6 4 3 7 7 4 1 3 3 6 3 9 5 3 4 5 9 10 4 8 5 3 5 2 7 2 0 1 2 1 4 2 3 2 4 4 2 2 4 2 1 1 1 0 2 2 2 3
14 9 7 2 2 1 1 1 1 1 1 2 2 3 1 4 0 1 1 3 0 0 1 1 1 2 1 1 4 4 2 4 5 3 1 3 6 4 4 8 3 1 2 3 3 7 2 3 6 6 4 2 3 6 7 7 10 11 8 4 4 2 3 1 4 1 5 6 4 2 3 2 1 1 3 5 4 3 1 2 1 1 1 0 3 3 4 3
15 7 1 2 1 2 2 1 1 2 1 2 1 2 5 1 1 2 1 1 1 1 1 0 2 1 4 3 1 2 4 1 4 4 4 1 6 4 7 8 8 7 5 2 5 3 5 3 5 5 3 5 4 3 1 2 3 2 2 1 2 4 1 2 2 2 3 5 8 4 0 2 1 3 4 6 5 1 1 2 2 0 1 3 4 5 5 4
13 3 1 2 1 2 3 1 2 3 4 2 7 4 1 2 1 2 1 1 2 1 0 1 1 2 3 3 3 1 1 1 3 3 8 4 3 2 4 5 6 2 1 1 0 0 2 5 5 3 4 2 4 3 1 2 1 2 3 4 5 1 2 1 3 2 2 4 6 2 2 1 1 1 2 1 2 3 3 4 4 3 3 4 5 5 6 4
5 3 0 2 1 1 0 3 3 2 1 3 2 1 1 2 0 1 1 2 0 0 0 2 5 3 1 2 1 4 4 1 5 2 4 3 1 2 1 0 3 3 3 2 1 2 3 1 1 7 3 3 4 2 2 1 0 1 2 1 2 3 3 1 1 1 1 3 6 1 7 2 4 1 1 1 3 4 4 3 3 3 4 4 5 5 6 6
4 4 1 2 1 1 1 3 3 2 5 5 3 1 1 0 1 2 1 1 1 3 2 0 2 1 1 1 1 5 3 2 1 3 2 1 1 1 1 0 3 2 1 1 2 1 1 9 4 1 1 1 1 1 1 2 1 1 3 2 1 2 3 3 1 4 4 1 6 1 3 5 2 2 1 3 2 4 4 3 4 4 5 6 6 6 6 7
2 2 1 1 1 0 1 3 2 4 5 5 4 3 1 2 0 1 1 0 0 2 3 1 0 1 1 0 2 2 5 2 4 3 0 1 1 1 0 1 1 3 2 0 2 2 0 4 2 1 2 7 6 2 1 1 3 2 1 1 1 1 1 3 2 2 3 4 6 6 2 5 6 6 4 1 1 3 4 3 4 5 5 6 6 7 7 6
1 1 1 3 0 0 1 3 5 1 2 7 1 3 0 0 1 1 2 2 1 2 1 1 1 1 2 1 1 0 3 2 2 1 1 1 2 1 1 1 1 3 3 2 1 1 1 0 6 1 1 3 3 3 0 6 6 1 1 1 1 2 1 1 1 3 5 4 5 8 3 4 5 4 8 2 4 0 3 4 4 5 4 5 5 5 6 5
2 2 1 2 1 2 3 2 6 8 7 3 2 1 1 2 1 0 2 1 1 1 0 2 1 1 2 0 0 0 2 1 1 0 1 1 1 1 0 3 0 5 4 2 1 0 1 1 2 4 4 1 1 2 1 2 3 5 6 3 3 2 1 3 0 2 2 2 3 3 8 5 6 5 5 3 5 1 2 5 5 5 5 5 5 5 4 4
1 3 1 2 3 1 3 10 11 7 5 0 2 3 0 1 1 1 3 4 2 2 1 3 4 1 3 1 0 0 0 1 0 0 0 0 0 2 1 1 1 3 2 2 5 2 1 1 3 6 7 2 2 1 0 3 1 1 2 2 3 1 1 1 5 1 1 2 3 1 12 6 6 2 5 6 4 2 3 4 5 6 7 7 5 4 4 3
1 1 2 1 3 3 4 7 4 1 5 4 1 1 1 4 2 0 1 3 4 1 2 4 1 5 2 1 1 1 1 0 0 1 0 1 0 1 1 4 3 1 1 0 0 2 2 2 2 5 4 7 7 8 2 2 2 1 4 1 1 2 4 5 1 4 2 2 2 1 2 10 6 1 1 2 1 3 4 6 10 9 8 8 6 4 4 4
3 1 3 3 3 3 9 6 2 5 3 2 3 2 2 1 2 2 1 2 0 0 3 2 1 2 1 1 1 1 2 0 1 1 1 0 1 3 3 4 3 3 1 1 1 1 5 1 1 5 6 5 5 2 1 3 2 3 2 1 2 1 1 4 3 3 3 2 1 1 4 10 5 1 1 2 2 4 8 7 9 10 8 8 5 5 6 6
1 1 3 1 3 4 3 0 1 1 0 1 3 0 3 1 1 1 1 0 1 0 1 0 1 0 2 1 2 1 4 1 1 1 0 1 1 0 1 0 2 0 1 1 2 3 1 2 3 3 5 7 3 3 2 2 5 2 2 2 1 3 3 1 3 1 1 8 10 6 10 7 3 1 3 3 10 13 10 8 7 11 9 5 5 5 5 6
0 1 1 6 7 5 1 2 7 5 1 3 1 4 1 2 1 0 1 0 1 2 1 1 0 1 1 1 1 1 1 1 1 0 1 1 1 1 2 2 2 1 1 4 3 1 2 2 2 1 2 5 6 3 3 2 4 7 1 1 1 1 3 6 2 0 3 3 6 5 10 8 2 5 9 12 12 10 7 9 9 6 7 6 6 6 6 7
1 2 4 4 7 6 5 2 5 6 6 3 3 1 1 2 0 2 2 1 0 1 1 2 1 4 2 1 1 0 0 0 1 1 1 0 2 1 1 1 1 1 2 4 1 2 1 0 2 4 6 7 7 2 2 2 4 4 12 6 8 5 4 4 3 3 10 3 6 12 9 20 18 16 12 10 5 10 13 11 11 9 6 6 5 6 7 8
0 2 0 0 3 7 3 3 3 3 5 3 2 3 2 1 1 0 1 0 0 1 1 1 1 1 1 1 1 1 1 1 1 1 2 2 2 2 3 3 3 4 4 2 2 3 1 1 4 5 6 8 5 6 4 2 4 7 12 15 6 5 4 6 7 10 5 2 16 8 17 16 20 13 11 12 12 11 11 11 11 7 6 7 7 7 9 8
1 1 1 1 1 1 3 2 2 5 3 3 1 1 4 2 1 2 1 0 0 1 2 2 1 0 4 4 3 1 1 0 1 2 0 1 0 3 1 2 2 4 3 0 1 2 2 1 2 2 4 6 7 6 6 4 5 7 12 14 12 10 8 11 14 16 8 8 18 7 3 9 18 18 18 15 13 13 14 13 8 8 8 7 7 8 9 10
2 1 1 1 1 0 1 1 3 6 5 3 2 2 3 3 5 4 3 1 1 1 1 1 3 5 4 2 2 1 2 0 3 1 2 1 3 0 1 3 0 3 2 1 1 1 1 3 4 2 4 4 7 9 8 10 5 7 14 14 10 8 13 13 16 15 13 16 17 18 17 20 19 22 19 17 14 12 10 6 6 8 9 7 7 9 10 11
1 2 0 4 4 2 0 1 2 4 3 0 2 3 4 6 6 2 0 3 2 2 0 2 3 3 5 4 3 3 6 5 3 2 3 3 2 2 2 4 1 1 1 1 1 1 3 5 5 1 3 8 6 5 7 8 4 6 16 18 14 12 13 16 15 16 13 14 19 20 21 21 20 14 12 12 9 4 4 8 10 10 8 8 9 10 11 11
1 1 4 6 3 0 1 1 2 3 2 1 2 2 3 5 4 5 2 3 2 5 4 5 5 2 1 4 4 6 5 5 4 3 5 5 2 5 3 2 5 2 1 0 1 2 1 4 2 1 4 6 2 3 5 5 6 8 17 21 16 11 10 10 10 10 7 12 11 10 12 15 15 3 6 5 5 5 9 10 11 11 9 8 10 12 12 12
2 0 3 4 3 1 2 0 0 2 1 4 3 3 3 7 3 5 1 1 1 3 7 5 4 5 0 3 9 9 5 4 5 5 5 5 4 3 3 3 8 7 4 4 2 3 4 1 0 1 4 7 1 1 3 9 12 11 11 10 9 6 7 5 7 6 10 5 5 9 13 11 10 9 11 11 6 8 9 10 11 11 10 9 11 12 12 12
Wind_Direction
22 21 18 16 14 12 11 10 10 9 9 9 9 8 5 2 2 0 358 357 356 354 352 350 343 339 332 319 303 297 87 45 25 22 28 6 353 349 351 352 355 351 347 340 345 8 1 351 0 345 21 46 336 28 314 27 347 52 56 121 57 120 52 337 46 11 275 25 320 342 352 7 17 347 352 309 22 51 49 48 55 51 48 28 346 21 12 9
18 17 17 15 12 10 9 9 8 8 7 7 7 5 2 360 359 359 357 356 356 355 349 348 344 339 327 309 293 241 141 33 28 24 26 345 348 352 350 351 352 355 351 353 359 355 3 354 343 353 32 46 317 33 2 3 33 49 84 58 99 32 72 325 306 309 21 318 299 314 345 27 6 342 335 33 18 23 34 33 33 47 43 42 35 34 39 40
15 14 14 14 11 9 8 7 7 6 6 4 4 2 359 356 357 357 357 357 355 354 351 346 347 348 334 341 226 154 123 53 8 23 350 343 346 348 347 349 351 353 359 345 339 349 352 309 296 21 34 59 15 3 37 357 41 20 95 65 39 256 236 101 17 344 334 278 340 353 341 25 345 26 297 52 22 30 32 14 25 41 38 44 40 42 44 43
15 13 12 12 9 8 7 6 6 5 5 4 1 1 358 353 354 357 357 356 357 353 351 349 351 357 356 32 81 116 83 6 36 345 337 337 341 344 345 345 351 355 349 355 319 360 332 13 14 46 46 47 336 35 36 342 63 342 64 78 18 275 67 349 355 343 331 33 338 356 318 18 350 332 27 352 48 29 9 16 20 37 45 44 42 37 41 42
14 12 10 9 8 7 5 5 4 5 5 4 4 0 356 352 352 354 356 356 355 355 352 350 353 3 2 30 36 61 80 43 5 344 318 335 340 339 343 345 348 356 354 349 7 13 19 28 36 41 60 44 18 36 29 357 68 85 94 165 201 312 63 340 341 358 346 335 47 16 35 352 308 29 23 39 54 23 351 356 33 52 48 44 42 41 42 40
13 11 9 7 6 5 4 3 4 5 6 7 6 3 356 351 353 353 353 355 356 354 354 351 349 1 7 32 32 63 99 61 315 317 322 333 336 339 339 343 352 358 1 15 20 3 24 8 38 28 21 44 15 52 341 7 10 84 357 340 356 11 26 339 339 343 15 28 38 29 347 283 21 37 20 41 37 347 11 38 55 54 52 49 48 40 40 38
11 10 8 5 5 4 2 1 3 5 7 9 8 6 359 353 352 354 352 353 353 354 354 350 349 350 360 56 90 68 76 131 274 301 325 334 334 335 339 342 358 2 12 13 15 22 6 24 43 20 53 64 31 12 351 52 15 93 83 8 343 353 15 323 331 330 37 46 12 288 353 45 6 48 336 31 18 44 54 53 55 54 51 44 46 41 42 41
9 8 6 4 2 3 1 1 2 5 6 5 5 4 0 355 353 351 350 351 351 354 355 353 344 1 4 47 34 56 52 12 325 315 327 334 334 332 343 345 5 348 13 38 12 18 354 35 29 329 61 70 322 12 326 48 42 57 41 343 323 359 339 334 359 40 53 40 8 49 51 327 13 60 38 38 43 51 54 52 48 51 49 45 44 39 37 37
7 6 5 2 2 1 1 1 2 2 2 2 359 360 360 354 351 350 348 346 350 352 356 358 352 347 26 102 186 53 15 319 311 307 328 333 327 329 4 349 344 3 345 9 21 28 35 7 21 46 318 44 351 46 345 44 8 46 4 4 338 32 1 6 22 19 41 48 6 53 27 14 2 74 49 31 42 52 55 51 46 51 49 45 43 40 38 36
6 4 2 1 1 1 0 2 1 1 359 357 355 354 354 353 349 347 345 341 340 352 356 3 358 5 8 12 325 62 303 323 314 325 327 333 330 347 345 346 355 353 6 347 16 22 36 334 35 298 158 96 38 3 334 54 80 90 349 26 75 44 42 21 32 7 1 62 28 66 46 27 11 55 51 20 40 55 55 50 45 53 53 47 46 42 36 38
4 3 1 360 0 0 0 1 359 358 354 352 349 348 349 348 347 344 341 337 335 343 354 3 356 26 41 352 64 66 322 335 318 330 330 331 346 347 324 328 351 357 2 345 12 54 2 339 298 90 64 323 9 333 38 333 307 54 178 76 59 55 44 27 19 2 7 20 37 71 52 38 21 58 50 18 42 61 63 52 49 51 52 52 48 48 43 43
4 2 0 360 359 360 0 359 358 354 351 346 344 343 342 342 344 344 339 330 341 343 350 0 28 92 80 50 60 50 279 311 300 318 325 346 341 297 287 305 351 347 18 359 353 7 15 333 18 50 49 329 358 358 25 354 59 59 65 57 33 43 36 17 18 349 13 4 341 226 46 28 18 38 346 347 60 61 59 54 49 50 49 48 49 48 45 39
4 2 1 0 359 358 360 357 355 353 349 344 339 338 336 338 345 345 343 344 338 345 353 12 19 61 179 53 43 206 311 290 324 327 0 0 329 348 351 3 7 18 359 24 1 344 6 31 41 49 357 67 3 76 350 52 359 46 41 50 35 30 35 5 6 359 20 356 352 98 53 349 7 12 360 331 60 63 54 47 44 46 46 45 45 47 45 38
5 3 2 1 359 358 357 356 353 351 347 342 337 334 334 336 343 345 339 345 323 347 25 44 54 58 57 89 250 251 322 341 305 11 357 334 7 334 -0 351 352 7 14 25 1 11 9 10 58 104 43 32 347 338 39 17 28 59 5 49 23 35 11 339 14 356 41 357 37 84 94 19 6 12 359 356 48 70 61 50 45 44 43 42 42 43 43 41
5 5 2 1 360 357 355 355 352 349 345 339 333 329 334 342 341 344 354 356 357 3 18 47 39 74 39 31 263 311 337 279 14 352 342 351 0 348 350 334 344 349 0 40 5 353 9 2 52 37 20 314 39 39 19 36 17 13 46 2 341 56 337 314 8 12 44 7 357 84 62 61 21 1 353 358 46 67 65 53 48 46 45 42 41 41 40 41
3 3 2 359 359 357 355 355 353 347 343 334 324 318 322 355 8 8 27 45 19 8 359 45 354 84 104 43 317 334 14 19 337 318 299 360 360 353 296 304 345 0 15 24 8 356 13 10 68 49 24 24 33 40 49 37 357 12 74 71 19 22 353 352 8 7 14 66 26 83 135 175 31 353 360 4 48 63 65 53 48 47 45 43 43 41 39 33
2 2 0 358 355 355 355 355 353 348 341 331 321 311 318 5 7 42 46 51 12 22 52 28 332 87 70 258 354 22 0 307 304 329 344 345 355 339 359 3 3 338 353 358 26 7 3 44 318 42 36 54 5 26 66 34 25 8 14 84 74 62 3 41 306 23 357 69 59 58 85 73 67 355 15 26 37 62 59 54 49 48 47 45 43 42 38 36
1 1 359 357 354 353 353 356 355 352 341 330 323 308 331 346 6 33 4 9 13 81 90 120 123 39 347 13 30 324 307 299 338 313 279 339 71 7 17 7 353 356 21 345 343 31 330 54 357 71 41 25 21 28 63 71 58 32 4 24 357 13 62 67 42 336 41 41 80 77 77 66 38 33 33 30 41 64 60 55 52 48 45 41 42 41 38 38
1 0 359 357 354 352 353 356 356 357 345 331 331 356 17 34 19 47 30 339 36 355 26 342 13 73 107 313 283 276 304 291 282 360 347 353 338 31 0 3 61 25 341 40 359 20 0 110 37 37 20 5 3 15 62 133 109 86 89 96 50 43 7 32 340 328 63 66 55 57 87 68 44 39 28 31 36 63 60 56 53 48 47 43 42 39 40 36
359 358 358 357 355 352 355 4 1 4 11 21 9 16 13 14 5 351 349 22 66 93 127 253 61 23 353 338 336 297 264 17 18 349 358 354 342 344 27 27 323 73 35 41 315 31 307 55 39 23 343 326 349 345 46 55 105 123 92 72 52 40 357 310 0 344 259 76 48 76 79 73 51 39 30 11 52 60 54 51 50 49 46 46 43 43 38 38
357 356 355 355 354 353 358 11 8 17 38 86 58 56 70 273 65 41 338 36 2 49 90 56 95 129 135 268 290 354 10 325 67 5 3 293 219 60 355 8 1 37 1 317 62 321 302 51 11 337 323 328 317 325 16 69 53 67 66 50 44 41 3 316 346 350 9 92 32 17 77 49 60 39 34 17 59 50 52 58 55 52 53 50 46 42 37 30
356 354 353 350 351 352 353 17 13 4 38 61 66 84 122 144 182 158 125 59 5 5 34 16 359 21 332 243 257 277 84 286 355 0 347 24 352 60 319 62 38 54 343 341 359 14 49 46 347 332 323 317 321 24 39 61 52 48 66 41 45 360 290 285 320 357 340 50 68 326 83 36 12 37 27 50 61 57 52 63 65 63 56 52 47 43 36 28
355 353 351 349 347 346 347 9 24 15 31 28 52 81 82 276 240 199 128 116 73 324 39 6 24 6 345 314 345 32 40 36 328 345 351 9 354 64 331 40 35 22 23 30 50 28 46 15 329 331 336 348 27 31 40 44 51 44 30 38 26 286 28 3 321 355 342 66 171 178 90 54 349 0 44 34 49 52 43 56 55 58 64 57 47 41 37 32
354 352 350 348 346 341 342 10 36 27 52 85 77 63 266 327 88 92 81 90 140 323 88 208 111 105 6 12 347 17 40 6 46 344 343 23 25 308 59 40 52 39 36 45 62 75 121 261 302 323 7 24 30 28 32 29 31 356 79 98 58 349 317 182 269 318 310 39 90 32 43 353 10 15 25 4 11 46 29 41 44 40 50 60 50 44 36 39
353 351 350 346 346 342 329 52 38 38 129 43 68 312 297 310 94 138 95 17 17 36 187 64 109 44 328 273 340 78 309 302 58 244 307 38 337 34 352 205 88 19 72 169 81 78 62 335 304 23 13 20 24 32 23 11 21 341 242 99 237 241 271 238 269 323 36 345 343 6 33 317 304 342 11 341 4 33 358 46 37 38 41 37 46 36 19 22
353 351 349 349 347 343 349 52 327 3 66 56 315 301 309 354 9 93 88 80 34 274 1 4 156 0 131 342 357 323 29 47 80 344 327 343 241 97 20 16 47 20 330 59 85 111 88 341 56 19 22 28 43 83 38 38 343 60 326 107 4 263 228 300 352 58 50 89 340 68 141 247 330 98 58 320 36 31 0 30 25 29 28 38 45 29 21 17
353 351 351 351 354 358 61 312 256 78 41 349 273 292 343 355 39 64 18 350 36 311 18 257 59 334 42 315 315 27 47 299 325 349 10 5 21 319 98 336 6 345 151 138 39 359 20 353 8 18 30 24 20 27 356 29 28 0 244 28 350 156 171 182 116 117 205 295 297 33 82 146 275 287 258 282 69 16 14 0 10 14 22 37 35 22 17 14
352 351 351 352 360 27 143 113 26 38 114 293 309 355 350 348 96 62 78 52 331 352 20 323 35 328 65 314 14 74 169 281 22 350 29 319 29 350 79 357 89 356 326 83 97 257 76 336 17 18 18 25 18 309 291 350 185 243 308 0 307 256 222 162 142 167 198 117 289 339 355 79 260 263 323 30 57 353 5 347 347 354 13 23 22 8 7 9
351 348 348 354 348 50 56 83 102 41 303 291 342 360 350 29 83 94 114 112 257 71 209 76 262 9 339 359 33 34 337 4 88 290 329 343 24 181 45 355 130 343 19 92 147 295 326 103 53 112 41 7 294 296 266 288 5 282 305 322 274 153 142 159 101 101 344 69 313 340 326 116 283 265 328 337 84 358 287 290 309 311 334 0 352 350 346 350
349 347 345 355 8 24 4 34 55 242 312 318 12 2 37 63 38 40 7 283 45 289 21 281 59 301 13 39 342 4 30 343 158 301 16 67 329 24 59 70 109 32 25 7 70 196 262 287 174 95 45 311 287 279 218 277 229 291 305 37 1 53 29 36 53 71 57 35 256 270 298 185 284 247 193 127 180 190 259 302 292 311 358 350 324 307 323 337
348 344 342 12 69 305 57 16 306 286 304 44 26 50 71 38 114 98 83 233 55 284 6 24 358 16 12 36 352 338 31 345 350 15 355 4 6 38 11 34 26 74 48 11 31 343 349 344 37 293 21 299 191 326 309 305 276 351 13 17 31 340 9 28 347 30 88 279 253 227 312 177 147 291 266 241 275 191 164 170 261 258 331 319 306 300 300 319
347 343 341 14 213 71 77 306 287 109 57 24 59 57 72 266 7 84 206 341 218 287 76 287 341 65 9 333 54 342 348 332 2 28 48 20 35 36 4 76 343 45 348 13 334 360 14 9 298 322 309 27 344 56 311 352 357 18 22 28 86 278 36 270 10 357 235 190 182 205 9 37 256 211 170 183 209 240 225 206 208 191 59 311 300 296 288 302
342 347 334 342 32 38 240 213 95 67 61 43 72 56 57 89 263 264 295 331 172 0 301 124 270 7 314 59 356 337 308 39 320 36 80 3 91 46 40 49 334 108 299 346 316 8 286 296 349 337 15 41 52 72 332 5 353 5 30 19 62 31 36 266 274 237 312 285 269 343 345 220 233 295 204 160 205 200 223 265 315 142 134 345 298 293 300 312
336 330 354 297 233 209 228 110 132 80 54 43 73 37 47 37 252 99 122 258 183 334 106 39 354 16 39 82 323 356 21 277 18 343 33 2 47 35 351 9 16 11 76 358 58 354 27 341 330 7 6 337 52 91 143 181 322 311 269 104 158 145 158 251 233 269 234 247 290 295 90 239 74 208 175 179 171 194 349 21 54 60 281 289 286 295 307 316
327 23 325 328 3 286 238 143 114 114 86 63 55 87 136 246 180 184 255 276 281 296 105 311 53 67 346 22 329 330 145 313 37 12 13 53 13 54 3 346 344 82 102 59 282 80 251 240 258 249 262 14 9 320 120 104 61 278 140 96 55 323 140 167 206 180 283 339 325 332 190 217 150 262 197 189 141 24 5 36 48 17 342 337 336 333 330 301
17 313 4 305 3 270 125 127 116 78 93 58 76 40 208 182 292 125 74 182 69 127 269 18 71 61 319 329 318 35 323 98 331 72 344 43 232 88 256 249 11 359 34 111 278 8 16 308 265 320 350 36 354 316 353 135 74 269 57 39 231 188 109 39 5 29 59 53 257 206 318 310 305 23 155 88 94 5 15 16 25 354 332 333 335 325 325 302
9 338 31 313 320 252 181 136 120 83 61 90 89 211 187 264 203 161 332 137 186 137 50 94 308 85 329 320 282 341 314 37 356 83 341 341 349 9 27 254 188 46 96 132 346 221 112 274 314 39 303 300 322 200 255 18 121 58 55 245 92 78 118 125 236 330 56 137 264 31 218 304 22 250 284 19 47 356 6 351 348 325 336 346 325 318 307 294
5 3 282 317 254 77 122 133 90 48 78 79 73 128 217 88 258 105 218 62 23 36 91 96 242 62 246 117 331 342 314 89 316 52 257 40 190 238 67 351 316 117 339 336 124 277 97 341 294 342 253 284 339 59 10 318 22 94 149 159 92 303 317 320 92 355 332 313 287 301 301 254 207 238 182 245 91 340 340 327 346 329 334 325 308 305 308 314
80 70 32 288 283 67 136 86 62 74 58 59 180 110 243 179 247 112 281 158 101 133 82 218 138 342 128 123 262 288 340 64 320 84 62 299 73 90 74 160 313 348 6 46 64 293 11 180 298 300 35 298 338 53 117 305 334 19 18 20 339 102 160 45 204 181 119 262 15 289 43 233 206 223 170 220 181 155 305 320 290 278 278 295 303 310 312 310
34 45 326 262 345 51 95 70 58 41 59 107 185 129 204 84 107 286 345 188 324 73 216 137 145 101 28 167 127 66 337 85 66 274 109 278 135 295 241 3 245 322 8 13 125 342 304 105 254 280 312 20 328 0 139 320 308 331 28 338 356 16 216 107 21 130 179 197 191 275 312 272 263 208 153 188 166 159 235 272 272 282 292 303 302 308 298 288
63 103 268 276 345 158 53 47 45 37 92 284 68 152 92 167 177 330 350 31 123 304 161 149 159 128 187 107 12 15 57 38 27 38 139 325 115 333 219 143 62 337 348 21 49 358 53 11 229 319 350 11 227 233 190 235 181 196 147 88 201 54 19 23 280 21 55 103 238 163 276 253 266 185 142 170 179 199 248 237 280 311 322 318 311 307 292 282
82 48 282 309 19 84 77 54 28 94 93 97 56 160 98 127 61 342 15 351 74 118 349 108 81 123 129 115 168 98 129 75 186 65 299 155 339 152 302 88 135 283 73 334 254 278 134 160 77 293 225 268 293 297 330 284 119 185 123 84 109 103 102 100 151 279 357 246 127 158 287 283 252 270 152 141 148 313 303 340 333 321 317 318 318 307 307 318
61 174 252 339 327 89 68 76 28 46 67 228 290 8 350 38 123 232 102 338 48 13 13 56 191 99 243 146 194 123 179 123 160 206 290 275 267 215 236 144 95 58 81 337 37 308 71 77 22 271 293 287 306 326 342 28 86 42 5 45 69 65 149 176 174 184 177 299 311 303 230 247 285 299 9 332 227 269 332 346 318 317 315 314 310 313 311 315
168 231 332 295 37 100 78 146 97 56 117 310 70 164 349 153 100 25 51 288 124 4 130 189 341 215 145 124 118 160 194 84 244 121 148 169 242 347 115 331 154 73 91 265 112 258 31 273 130 341 350 337 344 345 1 338 51 77 314 333 80 104 83 153 98 77 226 212 197 139 241 267 268 221 258 286 329 334 321 312 310 310 307 290 286 292 291 293
129 298 236 305 2 52 122 177 129 144 144 138 106 94 45 21 37 197 153 123 45 128 76 347 209 146 50 133 96 97 251 169 194 284 111 178 224 0 314 155 226 132 204 213 234 92 116 205 91 62 350 329 317 307 285 295 306 301 215 25 141 64 352 3 290 15 203 272 173 196 256 246 254 325 320 316 311 308 302 296 303 286 273 280 299 299 296 297
28 135 304 353 16 36 60 59 102 132 137 149 76 234 106 92 15 306 123 21 169 69 81 130 9 80 68 50 51 38 243 311 130 239 107 283 291 307 215 173 127 190 232 234 126 112 175 291 142 164 162 215 238 219 240 25 354 297 284 278 276 269 250 205 161 196 232 229 219 235 246 285 282 277 284 286 288 290 298 299 297 290 275 280 281 285 287 287
170 91 269 353 346 47 75 23 89 85 168 176 115 174 133 148 186 346 98 90 334 131 54 79 192 115 280 94 210 143 233 103 4 96 219 175 247 227 317 141 285 227 209 80 37 76 64 305 246 183 221 238 279 283 256 245 245 254 273 280 267 237 191 196 188 232 121 48 271 225 235 246 270 289 284 288 293 289 288 294 291 278 279 283 286 284 280 276
69 263 87 216 133 229 67 3 92 89 79 80 115 69 149 122 144 155 343 47 38 21 111 333 101 310 179 184 140 119 196 157 135 214 115 251 337 330 10 354 108 322 72 45 356 117 138 225 263 144 256 244 264 264 275 269 231 246 262 269 271 258 231 229 236 238 229 227 252 249 258 287 281 283 285 287 288 290 291 287 266 259 274 284 289 282 284 295
110 144 142 307 128 254 132 173 110 120 102 116 111 108 162 161 189 202 161 142 48 313 110 218 248 217 204 167 126 171 193 66 291 278 187 206 200 172 311 336 298 21 79 59 11 145 74 251 242 192 264 272 280 284 286 277 276 275 271 268 251 242 243 235 248 245 225 241 251 267 273 268 270 273 280 284 285 279 275 273 285 290 281 278 276 290 298 300
244 118 296 9 82 122 234 83 111 90 92 60 112 238 163 181 177 162 315 131 133 235 28 182 234 205 187 184 159 163 218 190 172 178 227 128 324 152 230 192 167 359 66 158 152 298 106 273 155 236 297 283 261 261 270 274 294 279 277 275 268 257 258 251 252 259 250 255 257 261 266 272 266 262 271 270 268 280 301 285 275 281 287 290 291 290 292 296
175 176 145 118 53 320 50 59 107 115 99 321 111 216 135 194 204 170 190 179 150 170 174 204 191 163 169 182 210 230 228 180 170 188 181 163 198 218 139 276 136 162 132 153 102 285 124 259 28 148 294 286 150 228 274 315 291 266 272 273 265 245 243 253 234 230 200 234 247 258 263 262 272 262 240 242 269 265 267 275 284 285 284 283 285 289 291 293
66 21 93 106 96 225 145 29 90 90 256 224 158 197 179 212 167 154 104 168 181 171 179 174 181 126 216 177 228 226 222 193 209 216 204 218 198 220 200 168 164 156 189 184 193 166 189 184 318 9 299 282 273 138 319 324 308 294 265 243 232 198 197 247 262 239 222 210 248 240 250 260 285 301 302 284 253 248 253 263 271 275 273 274 276 281 284 284